This is the latest recevied weather packets stored in our database for station/object N4DBJ. If no packets are shown the sender has not sent any weather packets the latest 10 day(s).
| Time | Temp. | Humidity | Pressure | Rain* | Wind** | Luminosity | Snow |
|---|---|---|---|---|---|---|---|
| 1777687604 | 7.78° C | 82% | 1014.8 hPa | 0 mm | - | 0 W/m² | - |
| 1777687301 | 8.33° C | 83% | 1014.8 hPa | 0 mm | - | 0 W/m² | - |
| 1777686999 | 8.33° C | 82% | 1014.6 hPa | 0 mm | - | 0 W/m² | - |
| 1777686695 | 8.33° C | 80% | 1014.6 hPa | 0 mm | - | 0 W/m² | - |
| 1777686393 | 8.89° C | 79% | 1014.6 hPa | 0 mm | - | 0 W/m² | - |
| 1777686090 | 8.89° C | 79% | 1014.5 hPa | 0 mm | - | 0 W/m² | - |
| 1777685786 | 8.89° C | 78% | 1014.4 hPa | 0 mm | - | 0 W/m² | - |
| 1777685481 | 9.44° C | 76% | 1014.4 hPa | 0 mm | - | 0 W/m² | - |
| 1777685179 | 9.44° C | 74% | 1014.6 hPa | 0 mm | - | 0 W/m² | - |
| 1777684877 | 10° C | 74% | 1014.3 hPa | 0 mm | - | 0 W/m² | - |
| 1777684573 | 10° C | 73% | 1014.2 hPa | 0 mm | - | 0 W/m² | - |
| 1777684269 | 10.56° C | 71% | 1014.3 hPa | 0 mm | - | 0 W/m² | - |
| 1777683967 | 10.56° C | 70% | 1014.1 hPa | 0 mm | - | 0 W/m² | - |
| 1777683663 | 11.11° C | 66% | 1014.1 hPa | 0 mm | - | 0 W/m² | - |
| 1777683361 | 11.67° C | 64% | 1013.7 hPa | 0 mm | - | 0 W/m² | - |
| 1777683058 | 12.22° C | 63% | 1014 hPa | 0 mm | - | 0 W/m² | - |
| 1777682754 | 12.22° C | 61% | 1013.4 hPa | 0 mm | - | 0 W/m² | - |
| 1777682451 | 12.78° C | 62% | 1013.7 hPa | 0 mm | - | 0 W/m² | - |
| 1777682149 | 12.78° C | 59% | 1013.6 hPa | 0 mm | - | 2 W/m² | - |
| 1777681846 | 12.78° C | 57% | 1013.4 hPa | 0 mm | - | 3 W/m² | - |
| 1777681542 | 13.33° C | 56% | 1013.2 hPa | 0 mm | - | 3 W/m² | - |
| 1777681239 | 13.33° C | 55% | 1013.2 hPa | 0 mm | - | 6 W/m² | - |
| 1777680937 | 13.33° C | 55% | 1013.2 hPa | 0 mm | - | 10 W/m² | - |
| 1777680634 | 13.89° C | 52% | 1012.9 hPa | 0 mm | - | 12 W/m² | - |
| 1777680332 | 13.89° C | 52% | 1012.5 hPa | 0 mm | - | 20 W/m² | - |
* Rain latest hour (hover to see other rain measurements)
** Current wind speed in m/s (hover to see current wind gust speed)